Weather History for Salt Lake City, UT

Change the Weather History Date:

Sunday, June 16, 2013

  Actual Average Record
Temperature  
Mean Temperature 77 °F 70 °F  
Max Temperature 94 °F 83 °F 100 °F (1940)
Min Temperature 59 °F 56 °F 38 °F (1907)
Degree Days  
Heating Degree Days 0 1  
Month to date heating degree days 2 36  
Since 1 June heating degree days 2 36  
Since 1 July heating degree days 5458 5597  
Cooling Degree Days 12 6  
Month to date cooling degree days 145 72  
Year to date cooling degree days 215 122  
Since 1 June cooling degree days 145 72  
Growing Degree Days 26 (Base 50)    
Moisture  
Dew Point 30 °F    
Average Humidity 26    
Maximum Humidity 46    
Minimum Humidity 6    
Precipitation  
Precipitation 0.00 in 0.03 in 0.43 in (1957)
Month to date precipitation 0.00 0.67  
Year to date precipitation 6.12 8.90  
Snow  
Snow 0.00 in 0.00 in - ()
Month to date snowfall 0.0 0.0  
Since 1 July snowfall 69.9 56.2  
Snow Depth 0.00 in    
Sea Level Pressure  
Sea Level Pressure 29.82 in    
Wind  
Wind Speed 10 mph (SE)    
Max Wind Speed 23 mph    
Max Gust Speed 29 mph    
Visibility 10 miles    
Events      
T = Trace of Precipitation, MM = Missing Value Source: NWS Daily Summary

Daily Weather History Graph

Daily Weather History Graph

Search for Another Location

Airport:

Trip Planner

Search our weather history database for the weather conditions in past years. The results will help you decide how hot, cold, wet, or windy it might be!

Date:

Astronomy

Jun. 16, 2013 Rise Set
Actual Time 5:55 AM MDT 9:01 PM MDT
Civil Twilight 5:22 AM MDT 9:34 PM MDT
Nautical Twilight 4:39 AM MDT 10:17 PM MDT
Astronomical Twilight 3:49 AM MDT 11:08 PM MDT
Moon 1:38 PM MDT (6/16) 1:05 AM MDT (6/16)
Length of Visible Light 16h 12m
Length of Day
15h 05m
Waxing Crescent, 50% of the Moon is Illuminated
Jun 16
Waxing Crescent
Jun 23
Full
Jun 29
Last Quarter
Jul 8
New
Jul 15
First Quarter

Hourly Weather History & Observations

Time (MDT) Temp. Dew Point Humidity Pressure Visibility Wind Dir Wind Speed Gust Speed Precip Events Conditions
12:53 AM 66.9 °F 28.0 °F 23% 29.81 in 10.0 mi SE 9.2 mph - N/A   Clear
1:53 AM 63.0 °F 36.0 °F 37% 29.82 in 10.0 mi SSE 6.9 mph - N/A   Clear
2:53 AM 62.1 °F 37.0 °F 39% 29.82 in 10.0 mi SE 8.1 mph - N/A   Clear
3:53 AM 60.1 °F 39.0 °F 46% 29.82 in 10.0 mi SE 6.9 mph - N/A   Clear
4:53 AM 62.1 °F 37.0 °F 39% 29.81 in 10.0 mi SSE 9.2 mph - N/A   Clear
5:53 AM 60.1 °F 37.0 °F 42% 29.83 in 10.0 mi SE 8.1 mph - N/A   Clear
6:53 AM 62.1 °F 37.9 °F 41% 29.85 in 10.0 mi East 6.9 mph - N/A   Partly Cloudy
7:53 AM 68.0 °F 39.0 °F 35% 29.85 in 10.0 mi ESE 5.8 mph - N/A   Partly Cloudy
8:53 AM 73.9 °F 37.0 °F 26% 29.86 in 10.0 mi Variable 4.6 mph - N/A   Partly Cloudy
9:53 AM 81.0 °F 32.0 °F 17% 29.86 in 10.0 mi Calm Calm - N/A   Partly Cloudy
10:53 AM 88.0 °F 25.0 °F 10% 29.84 in 10.0 mi South 15.0 mph 27.6 mph N/A   Clear
11:53 AM 91.0 °F 21.9 °F 8% 29.84 in 10.0 mi South 17.3 mph - N/A   Partly Cloudy
12:53 PM 93.0 °F 21.0 °F 7% 29.82 in 10.0 mi South 18.4 mph 26.5 mph N/A   Partly Cloudy
1:53 PM 91.9 °F 33.1 °F 12% 29.81 in 10.0 mi NW 16.1 mph 28.8 mph N/A   Partly Cloudy
2:03 PM 93.2 °F 37.4 °F 14% 29.99 in 10.0 mi NW 9.2 mph 19.6 mph N/A   Partly Cloudy
2:53 PM 93.0 °F 30.0 °F 11% 29.81 in 10.0 mi Variable 5.8 mph 20.7 mph N/A   Partly Cloudy
3:53 PM 93.0 °F 23.0 °F 8% 29.80 in 10.0 mi NW 11.5 mph 16.1 mph N/A   Partly Cloudy
4:53 PM 93.9 °F 17.1 °F 6% 29.78 in 10.0 mi NW 10.4 mph 17.3 mph N/A   Partly Cloudy
5:53 PM 91.9 °F 24.1 °F 9% 29.78 in 10.0 mi NNW 15.0 mph 20.7 mph N/A   Partly Cloudy
6:53 PM 90.0 °F 21.9 °F 8% 29.78 in 10.0 mi North 15.0 mph - N/A   Clear
7:53 PM 88.0 °F 26.1 °F 11% 29.78 in 10.0 mi North 9.2 mph - N/A   Clear
8:53 PM 82.9 °F 32.0 °F 16% 29.78 in 10.0 mi North 3.5 mph - N/A   Clear
9:53 PM 77.0 °F 24.1 °F 14% 29.78 in 10.0 mi SSE 6.9 mph - N/A   Clear
10:53 PM 73.0 °F 26.1 °F 17% 29.78 in 10.0 mi South 8.1 mph - N/A   Partly Cloudy
11:53 PM 71.1 °F 26.1 °F 19% 29.78 in 10.0 mi SE 6.9 mph - N/A   Partly Cloudy